[[{"header":{"parameterUnit":"m.s-1","parameterCategory":1,"la1":30.2991,"la2":30.254,"lo1":-89.0895,"lo2":-89.0444,"dy":0.0017,"dx":0.0017,"nx":28,"ny":28,"refTime":"2025-08-13T09:00:00:Z","depth":0,"parameterNumber":2,"parameterNumberName":"U-component_of_WINDS"},"data":[0,0,0,0,0,0,0,0,0,0,0,0,0,0,0,0,0,0,0,0,0,0,0,0,0,0,0,0,0,0,0,0,0,0,0,0,0,0,0,0,0,0,0,0,0,0,0,0,0,0,0,0,0,0,0,0,0,0,2.7475,2.7477,0,2.7634,2.7635,2.7637,2.7585,2.7582,2.7578,2.7575,2.7742,2.775,2.7757,0,0,0,0,0,0,0,0,0,0,0,0,0,2.7131,2.7137,2.7475,2.7477,2.7479,2.7633,2.7635,2.7638,2.7586,2.7582,2.7578,2.7574,2.774,2.7749,2.7758,0,0,0,0,0,0,0,0,0,0,0,0,0,2.7284,2.714,2.7475,2.7472,2.7473,2.7633,2.7636,2.7638,2.7587,2.7582,2.7576,2.7572,2.7737,2.7748,2.7759,2.7933,0,0,2.7794,2.7799,0,0,0,0,0,0,0,0,2.7275,2.7297,2.747,2.7472,2.7474,2.7584,2.7575,2.7737,2.7588,2.7544,2.7575,2.7569,2.7694,2.7709,2.775,2.7941,2.7948,2.7795,2.7802,2.7807,2.781,0,0,0,0,0,0,0,2.7265,2.729,2.7538,2.7473,2.7475,2.7463,2.748,2.7606,2.7646,2.7547,2.7544,2.7563,2.7694,2.7739,2.7753,2.795,2.7795,2.7805,2.7812,2.7817,2.8292,2.8297,0,0,0,0,0,0,2.7253,2.7281,2.7533,2.7543,2.736,2.7474,2.7492,2.7554,2.7644,2.7653,2.7567,2.756,2.7722,2.774,2.7759,2.7969,2.7807,2.7818,2.7824,2.8286,2.8293,2.8299,0,0,0,0,0,0,2.7245,2.7276,2.7526,2.7411,2.7442,2.7485,2.7556,2.756,2.7605,2.766,2.7667,2.7605,2.7719,2.7743,2.789,2.7974,2.7823,2.7833,2.8279,2.8288,2.8296,2.8389,0,0,0,0,0,0,2.7236,2.7273,2.7339,2.7413,2.7448,2.7654,2.7561,2.7567,2.7624,2.7616,2.7697,2.7706,2.7716,2.7873,2.7901,2.7987,2.7842,2.8272,2.8283,2.8293,2.8379,2.84,2.8418,0,0,0,0,0,2.7224,2.736,2.7343,2.7373,2.7531,2.7659,2.7679,2.7687,2.7631,2.7698,2.7733,2.7703,2.796,2.7888,2.792,2.801,2.8267,2.828,2.8292,2.837,2.8396,2.8417,0,0,0,0,0,0,2.7297,2.737,2.7351,2.7515,2.7581,2.7649,2.7734,2.7714,2.7798,2.7787,2.7795,2.7814,2.7965,2.8002,2.7921,2.8183,2.8105,2.8125,2.8153,2.8178,2.8197,2.8186,2.7852,0,0,0,0,0,2.7332,2.7428,2.7487,2.7626,2.7659,2.7691,2.7747,2.7747,2.7816,2.7844,2.789,2.7959,2.8055,2.8119,2.821,2.8383,2.8401,2.8461,2.848,2.8496,2.8514,2.8608,2.8636,2.8341,2.8341,2.8341,0,0,2.7406,2.7457,2.7518,2.7642,2.7693,2.7793,2.7715,2.7825,2.7899,2.7861,2.8002,2.8038,2.8116,2.8277,2.835,2.8313,2.8598,2.8513,2.8525,2.8534,2.8624,2.8652,2.8677,2.835,2.8349,2.8347,0,0,2.7591,2.764,2.7761,2.7813,2.789,2.791,2.7939,2.8011,2.8033,2.8174,2.8147,2.8237,2.8402,2.8458,2.8509,2.8715,2.8691,2.8744,2.8847,2.8939,2.8962,2.8983,2.9057,2.9083,2.8761,2.8761,2.8762,0,2.7674,2.7822,2.7826,2.7938,2.7993,2.7961,2.8084,2.8135,2.8239,2.8279,2.8235,2.8441,2.8491,2.8665,2.8714,2.8756,2.879,2.8736,2.8958,2.8979,2.8998,2.9069,2.9097,2.8768,2.8767,2.8766,2.8766,0,2.792,2.8024,2.8112,2.8212,2.8277,2.8394,2.8416,2.8482,2.8477,2.8502,2.8646,2.8705,2.8807,2.8848,2.8845,2.9022,2.8996,2.8955,2.8877,2.9032,2.9099,2.9126,2.8776,2.8774,2.8772,2.8771,0,0,2.8158,2.8256,2.8289,2.8333,2.8416,2.8497,2.8612,2.8711,2.8768,2.884,2.8938,2.9078,2.904,2.9097,2.91,2.918,2.934,2.913,2.9132,2.9167,2.9539,2.957,2.9601,2.9324,2.9329,2.9333,2.9533,0,2.8351,2.8552,2.8558,2.8743,2.8839,2.881,2.891,2.8972,2.8999,2.9085,2.9114,2.9213,2.9156,2.919,2.9269,2.9304,2.9415,2.9289,2.9416,2.9421,2.9398,2.9635,2.9668,2.9854,2.9559,2.9563,2.9566,0,2.8603,2.8682,2.8876,2.8944,2.8984,2.9075,2.9165,2.9247,2.9317,2.9331,2.9394,2.9384,2.9503,2.942,2.9585,2.9499,2.9551,2.9576,2.9584,2.9597,2.9504,2.9656,2.9913,2.9941,2.9607,2.9604,2.9601,0,2.8758,2.8912,2.9048,2.9087,2.917,2.9234,2.9271,2.9336,2.9395,2.9474,2.9512,2.9605,2.9657,2.973,2.9745,2.9683,2.991,2.9829,2.9926,2.9926,2.9976,2.9973,3.0246,3.0008,3.0008,3.0007,3.0007,0,2.8973,2.9093,2.9119,2.9203,2.9336,2.9342,2.9475,2.9508,2.9565,2.9655,2.9636,2.9721,2.9736,2.9826,2.9839,2.9973,2.9997,3.0012,3.0014,3.0014,3.0012,3.0049,3.0037,3.0015,3.0013,3.0012,3.001,0,2.9169,2.9191,2.9337,2.9402,2.9422,2.9517,2.9574,2.9655,2.9678,2.9792,2.982,2.9857,2.9961,2.9983,3.0107,3.0116,3.0276,3.0265,3.0252,3.0251,3.0347,3.0338,3.0655,3.0697,3.0431,3.0433,3.0435,0,2.9306,2.9397,2.9472,2.953,2.957,2.9664,2.9724,2.9733,2.9796,2.9881,2.9952,3.0053,3.0135,3.0302,3.0341,3.0436,3.0428,3.0532,3.0442,3.0439,3.043,3.0425,3.0434,3.055,3.0553,3.0555,3.0557,0,2.9546,2.9551,2.9637,2.9726,2.9797,2.9868,2.9936,2.9985,3.0004,3.0075,3.018,3.0243,3.0368,3.047,3.0564,3.0604,3.0585,3.0584,3.0612,3.0614,3.0602,3.061,3.03,3.0578,3.0575,3.0574,3.0573,3.0572,2.9717,2.9796,2.9861,2.9957,3.0008,3.0071,3.015,3.0182,3.027,3.0371,3.0371,3.0486,3.0554,3.0678,3.0723,3.0814,3.0782,3.0822,3.0832,3.0842,3.0851,3.0587,3.0831,3.0831,3.083,3.083,3.0829,0,2.9956,2.9996,3.0083,3.0178,3.0253,3.0226,3.0299,3.0364,3.0465,3.0529,3.0609,3.0729,3.0827,3.0873,3.097,3.1033,3.1027,3.1059,3.1055,3.1064,3.0874,3.0841,3.1062,3.1062,3.1062,3.1062,3.1062,3.1062,3.009,3.0223,3.0236,3.0395,3.0434,3.0545,3.0589,3.0648,3.0698,3.0833,3.0914,3.0942,3.0999,3.1099,3.1188,3.1199,3.1236,3.1272,3.1279,3.1101,3.1078,3.1055,3.1024,3.128,3.128,3.1462,3.1463,3.1465]},{"header":{"parameterUnit":"m.s-1","parameterCategory":1,"la1":30.2991,"la2":30.254,"lo1":-89.0895,"lo2":-89.0444,"dy":0.0017,"dx":0.0017,"nx":28,"ny":28,"refTime":"2025-08-13T09:00:00:Z","depth":0,"parameterNumber":3,"parameterNumberName":"V-component_of_WINDS"},"data":[0,0,0,0,0,0,0,0,0,0,0,0,0,0,0,0,0,0,0,0,0,0,0,0,0,0,0,0,0,0,0,0,0,0,0,0,0,0,0,0,0,0,0,0,0,0,0,0,0,0,0,0,0,0,0,0,0,0,1.2742,1.2744,0,1.2925,1.2927,1.2929,1.2945,1.2943,1.2941,1.2939,1.3132,1.3139,1.3145,0,0,0,0,0,0,0,0,0,0,0,0,0,1.2411,1.2417,1.2742,1.2744,1.2746,1.2924,1.2927,1.2929,1.2945,1.2943,1.2941,1.2938,1.3129,1.3138,1.3146,0,0,0,0,0,0,0,0,0,0,0,0,0,1.2571,1.2419,1.2741,1.2776,1.278,1.2924,1.2927,1.293,1.2946,1.2943,1.294,1.2937,1.3127,1.3137,1.3147,1.327,0,0,1.3179,1.3184,0,0,0,0,0,0,0,0,1.2562,1.2583,1.2768,1.2774,1.2779,1.2909,1.2881,1.3044,1.2947,1.2883,1.2939,1.2936,1.306,1.3076,1.3117,1.3279,1.3288,1.318,1.3186,1.3191,1.3194,0,0,0,0,0,0,0,1.2551,1.2575,1.2814,1.2771,1.2778,1.2783,1.2803,1.2912,1.2986,1.2889,1.289,1.2911,1.3063,1.3107,1.3122,1.329,1.318,1.3189,1.3195,1.3199,1.3564,1.3567,0,0,0,0,0,0,1.2532,1.2566,1.2808,1.282,1.2661,1.2792,1.2813,1.287,1.2985,1.3,1.2914,1.2911,1.309,1.3109,1.3128,1.3281,1.3191,1.32,1.3206,1.3561,1.3565,1.3569,0,0,0,0,0,0,1.2525,1.2554,1.2801,1.2693,1.2725,1.28,1.2864,1.2875,1.2919,1.3004,1.3018,1.2945,1.3089,1.3114,1.3235,1.3288,1.3205,1.3215,1.3557,1.3562,1.3567,1.3587,0,0,0,0,0,0,1.2516,1.2551,1.2598,1.2694,1.2731,1.2903,1.2868,1.2881,1.2937,1.2936,1.3037,1.3051,1.3088,1.3219,1.3245,1.3301,1.3223,1.3552,1.3559,1.3565,1.3582,1.3592,1.3601,0,0,0,0,0,1.2504,1.2597,1.26,1.2629,1.279,1.2906,1.2927,1.2967,1.2941,1.2989,1.3043,1.3047,1.3277,1.3231,1.3261,1.332,1.3549,1.3557,1.3565,1.3577,1.359,1.36,0,0,0,0,0,0,1.2507,1.261,1.2615,1.2742,1.2815,1.2908,1.2971,1.2979,1.3063,1.3058,1.3106,1.3129,1.3248,1.3296,1.3243,1.3446,1.3411,1.3425,1.341,1.3423,1.3432,1.3419,1.3231,0,0,0,0,0,1.2522,1.2606,1.2692,1.2796,1.2832,1.2895,1.2947,1.2971,1.3049,1.3081,1.3144,1.3221,1.3311,1.3369,1.3457,1.3588,1.3611,1.3644,1.3653,1.366,1.3673,1.3747,1.3762,1.3594,1.3594,1.3594,0,0,1.2555,1.2622,1.2672,1.2798,1.2858,1.2945,1.2921,1.3014,1.308,1.3096,1.3214,1.3263,1.3352,1.3479,1.3538,1.3523,1.3724,1.367,1.3675,1.3684,1.3756,1.3772,1.3786,1.3599,1.3598,1.3597,0,0,1.266,1.2718,1.2811,1.2871,1.296,1.3001,1.3023,1.3116,1.3148,1.3267,1.3281,1.336,1.3513,1.3577,1.3629,1.3757,1.3764,1.3784,1.3834,1.3906,1.3919,1.3931,1.3978,1.3994,1.3795,1.3795,1.3795,0,1.269,1.2821,1.2858,1.2951,1.3007,1.3023,1.3119,1.3175,1.3289,1.3328,1.3309,1.3501,1.3563,1.3705,1.3736,1.3777,1.3805,1.3774,1.3914,1.3926,1.3938,1.3983,1.4001,1.3797,1.3797,1.3797,1.3797,0,1.2854,1.2944,1.3009,1.3117,1.318,1.3273,1.3327,1.3386,1.3405,1.3448,1.3569,1.3643,1.3745,1.3781,1.38,1.3926,1.3914,1.3903,1.387,1.3955,1.3999,1.4016,1.38,1.3799,1.3799,1.3798,0,0,1.2968,1.3094,1.3118,1.3167,1.3266,1.3338,1.3432,1.3531,1.3581,1.3659,1.3741,1.387,1.3861,1.392,1.3947,1.4009,1.4107,1.3992,1.3995,1.4012,1.4252,1.426,1.428,1.4112,1.4115,1.4118,1.4245,0,1.3085,1.3253,1.3289,1.3434,1.3519,1.3535,1.3618,1.3688,1.3731,1.381,1.3858,1.3949,1.3929,1.3965,1.4028,1.4082,1.4156,1.4073,1.4191,1.4194,1.4169,1.4302,1.4312,1.4428,1.4262,1.4265,1.4267,0,1.3245,1.3324,1.3477,1.3566,1.3603,1.3676,1.3769,1.3844,1.3925,1.3952,1.4017,1.4037,1.4138,1.4097,1.4238,1.418,1.423,1.4264,1.427,1.4284,1.4237,1.4322,1.4466,1.4484,1.4294,1.4292,1.429,0,1.3314,1.346,1.357,1.3612,1.3717,1.3769,1.3815,1.3893,1.395,1.4032,1.4069,1.4162,1.4214,1.4286,1.4331,1.4297,1.4469,1.4431,1.4496,1.4495,1.4533,1.453,1.4689,1.4562,1.4562,1.4561,1.4561,0,1.3442,1.3536,1.3603,1.3671,1.3777,1.3818,1.3922,1.3968,1.4037,1.4116,1.4135,1.4209,1.4264,1.4346,1.4381,1.4493,1.4516,1.4542,1.4551,1.4541,1.4538,1.4576,1.457,1.4566,1.4565,1.4564,1.4563,0,1.3538,1.3587,1.3709,1.3797,1.3822,1.3896,1.3973,1.4041,1.4083,1.4182,1.4208,1.4276,1.4373,1.4424,1.4547,1.4571,1.4697,1.47,1.4669,1.4673,1.4735,1.4729,1.4925,1.4953,1.4806,1.4807,1.4808,0,1.3618,1.369,1.3786,1.3839,1.3886,1.3972,1.4029,1.4073,1.4132,1.4229,1.4286,1.4383,1.4464,1.4619,1.468,1.4774,1.4781,1.4843,1.4795,1.4784,1.4784,1.478,1.4788,1.4852,1.4853,1.4855,1.4855,0,1.3754,1.3774,1.3855,1.3945,1.4013,1.4087,1.4159,1.4202,1.4257,1.4324,1.4422,1.4485,1.4608,1.4706,1.4804,1.4854,1.4865,1.4869,1.489,1.4882,1.4861,1.4875,1.4694,1.4865,1.4864,1.4864,1.4863,1.4863,1.3846,1.391,1.3988,1.4078,1.4137,1.4204,1.4272,1.4322,1.4404,1.4507,1.4528,1.4633,1.4712,1.4845,1.4897,1.4981,1.4969,1.4997,1.5005,1.5012,1.5015,1.4846,1.4999,1.4999,1.4998,1.4998,1.4998,0,1.3984,1.4034,1.4117,1.4217,1.4288,1.4289,1.4369,1.4429,1.4521,1.4593,1.4671,1.4785,1.4879,1.4947,1.5044,1.5098,1.5105,1.5122,1.5119,1.5131,1.502,1.4994,1.5114,1.5114,1.5114,1.5114,1.5114,1.5114,1.4065,1.4175,1.4204,1.4344,1.4394,1.4495,1.4541,1.4604,1.4661,1.4787,1.4865,1.4907,1.4978,1.508,1.5167,1.5185,1.522,1.5237,1.5255,1.5151,1.5139,1.5127,1.5102,1.5244,1.5244,1.5359,1.536,1.5361]}]]